Location: Pittsburgh
(40.4410°N, 79.9960°W)
Time: 06:09:11
(UTC-04:00)

ARIANE 6 FM1 Upper Stage - Pass Details

Date: 15 March 2026
Orbit: 525 x 604 km, 62.0° (Epoch: 20 April)

Event Time Altitude Azimuth Distance (km) Brightness Sun altitude
Exits shadow 05:10:43 28° 12° (NNE) 1,029 4.2 -27.1°
Drops below altitude 10° 05:12:50 10° 27° (NNE) 1,795 5.8 -26.7°
Sets 05:15:04 0° 32° (NNE) 2,680 6.9 -26.3°
